WHDW 20-01

operational
NORAD ID: 68129 Int'l Des: 2026-047 Owner: ZXW Country: CN
LEOCIRCULAR
追跡 地上

WHDW 20-01について

説明を読み込み中...

リアルタイム位置

3D地球を読み込み中...

次回通過

高度履歴

Altitude vs Time

uPlot chart will show altitude changes over time

軌道要素

1 68129U 26047A 26074.64295675 -.00000142 00000-0 59917-5 0 9992
2 68129 50.0055 46.2020 0009122 273.1238 86.8624 14.05944163 402
Epoch: Mar 15, 2026 • Age: 8 hours

現在のステータス

高度 882.8 km
速度 7.41 km/s
衛星直下点 -46.70°S, 121.89°E
打ち上げ日 Mar 12, 2026
運用期間 3 days
タイプ other

技術仕様

分類 Payload
質量 700.00 kg
乾燥質量 700.00 kg
総質量 700.00 kg
長さ 3.00 m
直径 1.00 m
スパン 10.00 m
形状 Box + 2 Pan
製造者 CAST
バスタイプ Xingwang C
フェーズステータス In Orbit
所有者/国 ZXW/CN

大規模コンステレーション

Loading constellations...